DLH1YN EDDM-LKPR

Flight info

Callsign DLH1YN
Flight time 0h 46m
Altitude 27000
Route AKINI Y104 MAMOR L132 AGNAV DCT LOMKI
Aircraft A320/M-SDE2E3FGIJ1LORWXYZ/HB1

Departure

Time 2026-05-04 16:20
Airport Munich Airport (EDDM)

Arrival

Time 2026-05-04 17:06
Airport Václav Havel Airport Prague (LKPR)
Time Latitude Longitude Altitude Speed Heading
2026-05-04 15:47 48.35730 11.79688 1476 ft 0 kts 83°
2026-05-04 16:07 48.35730 11.79686 1485 ft 2 kts 83°
2026-05-04 16:07 48.35723 11.79597 1481 ft 4 kts 88°
2026-05-04 16:08 48.35724 11.79571 1482 ft 4 kts 111°
2026-05-04 16:08 48.35764 11.79536 1481 ft 0 kts 173°
2026-05-04 16:12 48.35761 11.79459 1472 ft 8 kts 294°
2026-05-04 16:12 48.35860 11.79383 1483 ft 4 kts 353°
2026-05-04 16:13 48.35974 11.79337 1486 ft 11 kts 354°
2026-05-04 16:13 48.36084 11.79262 1479 ft 11 kts 274°
2026-05-04 16:14 48.36073 11.79065 1485 ft 8 kts 263°
2026-05-04 16:14 48.36062 11.78920 1472 ft 6 kts 263°
2026-05-04 16:15 48.36043 11.78671 1485 ft 10 kts 263°
2026-05-04 16:16 48.36020 11.78361 1475 ft 18 kts 263°
2026-05-04 16:16 48.35970 11.77708 1485 ft 23 kts 264°
2026-05-04 16:17 48.35933 11.77236 1479 ft 18 kts 263°
2026-05-04 16:18 48.36103 11.76961 1476 ft 15 kts 353°
2026-05-04 16:18 48.36212 11.76943 1477 ft 17 kts 353°
2026-05-04 16:19 48.36297 11.77029 1481 ft 0 kts 84°
2026-05-04 16:19 48.36312 11.77239 1485 ft 56 kts 83°
2026-05-04 16:20 48.36631 11.81445 2375 ft 165 kts 83°
2026-05-04 16:20 48.36934 11.85188 3327 ft 202 kts 76°
2026-05-04 16:21 48.40173 11.90021 4800 ft 253 kts 32°
2026-05-04 16:22 48.43023 11.93595 6283 ft 278 kts 56°
2026-05-04 16:22 48.46542 12.00818 8961 ft 297 kts 38°
2026-05-04 16:23 48.52523 12.03930 11510 ft 311 kts 13°
2026-05-04 16:24 48.61133 12.07124 14724 ft 328 kts 13°
2026-05-04 16:25 48.65616 12.08829 16172 ft 337 kts 13°
2026-05-04 16:26 48.74930 12.12483 18917 ft 354 kts 19°
2026-05-04 16:26 48.82061 12.17514 19861 ft 395 kts 25°
2026-05-04 16:27 48.87073 12.21132 21043 ft 402 kts 24°
2026-05-04 16:28 48.94745 12.26573 22793 ft 411 kts 24°
2026-05-04 16:28 49.02639 12.32110 24332 ft 420 kts 23°
2026-05-04 16:29 49.13365 12.39703 26192 ft 430 kts 23°
2026-05-04 16:30 49.21525 12.45514 26940 ft 420 kts 23°
2026-05-04 16:31 49.26851 12.49325 26947 ft 439 kts 23°
2026-05-04 16:31 49.35686 12.54800 26952 ft 469 kts 10°
2026-05-04 16:32 49.45346 12.57838 26954 ft 473 kts
2026-05-04 16:33 49.51762 12.59867 26955 ft 473 kts 11°
2026-05-04 16:33 49.57751 12.64018 26955 ft 477 kts 37°
2026-05-04 16:34 49.62329 12.71436 26952 ft 478 kts 49°
2026-05-04 16:34 49.64479 12.75356 26949 ft 478 kts 50°
2026-05-04 16:35 49.70889 12.87127 26299 ft 474 kts 49°
2026-05-04 16:35 49.77261 12.98814 23631 ft 471 kts 50°
2026-05-04 16:36 49.79372 13.02696 22516 ft 472 kts 50°
2026-05-04 16:36 49.83561 13.10428 20768 ft 467 kts 50°
2026-05-04 16:37 49.87714 13.18165 18807 ft 468 kts 52°
2026-05-04 16:37 49.89431 13.22442 17739 ft 468 kts 66°
2026-05-04 16:37 49.90621 13.32129 16283 ft 448 kts 95°
2026-05-04 16:38 49.90298 13.41542 15033 ft 433 kts 92°
2026-05-04 16:39 49.92348 13.55241 12521 ft 428 kts 86°
2026-05-04 16:39 49.92209 13.64273 11381 ft 407 kts 95°
2026-05-04 16:40 49.91922 13.72590 11132 ft 371 kts 95°
2026-05-04 16:40 49.91691 13.79738 10886 ft 325 kts 95°
2026-05-04 16:41 49.91481 13.86449 10030 ft 304 kts 95°
2026-05-04 16:41 49.91149 13.96176 8795 ft 297 kts 95°
2026-05-04 16:42 49.90793 14.05648 7666 ft 286 kts 95°
2026-05-04 16:43 49.90561 14.11608 6656 ft 272 kts 95°
2026-05-04 16:43 49.90342 14.17264 6022 ft 253 kts 95°
2026-05-04 16:43 49.90244 14.19955 5805 ft 247 kts 95°
2026-05-04 16:44 49.90886 14.30403 4606 ft 237 kts 85°
2026-05-04 16:45 49.91292 14.35279 4351 ft 220 kts 85°
2026-05-04 16:46 49.91893 14.42108 4003 ft 207 kts 85°
2026-05-04 16:46 49.92301 14.46493 4007 ft 205 kts 85°
2026-05-04 16:47 49.92781 14.50840 4004 ft 207 kts 69°
2026-05-04 16:47 49.95124 14.53283 4011 ft 217 kts
2026-05-04 16:48 49.98653 14.49571 4009 ft 215 kts 304°
2026-05-04 16:48 49.99548 14.47722 4006 ft 214 kts 304°
2026-05-04 16:49 50.01317 14.44088 3722 ft 206 kts 304°
2026-05-04 16:49 50.03021 14.40587 3214 ft 198 kts 305°
2026-05-04 16:50 50.04561 14.37421 2728 ft 168 kts 304°
2026-05-04 16:50 50.05913 14.34656 2323 ft 156 kts 304°
2026-05-04 16:51 50.07190 14.32001 1876 ft 152 kts 307°
2026-05-04 16:51 50.07619 14.31116 1731 ft 152 kts 307°
2026-05-04 16:51 50.09087 14.28081 1264 ft 147 kts 309°
2026-05-04 16:52 50.10077 14.26050 1471 ft 155 kts 310°
2026-05-04 16:52 50.10759 14.24699 2342 ft 161 kts 308°
2026-05-04 16:53 50.12319 14.21817 3119 ft 195 kts 308°
2026-05-04 16:53 50.15333 14.16415 3969 ft 236 kts 308°
2026-05-04 16:54 50.16070 14.14174 4009 ft 239 kts 276°
2026-05-04 16:55 50.11756 14.07886 4009 ft 258 kts 165°
2026-05-04 16:55 50.09044 14.11411 4004 ft 263 kts 126°
2026-05-04 16:56 50.06996 14.16114 4007 ft 262 kts 125°
2026-05-04 16:56 50.03957 14.23113 4004 ft 247 kts 129°
2026-05-04 16:57 50.02939 14.25150 4004 ft 230 kts 130°
2026-05-04 16:57 50.01028 14.28903 4007 ft 217 kts 130°
2026-05-04 16:58 49.98209 14.34361 4005 ft 215 kts 130°
2026-05-04 16:58 49.97276 14.36168 4005 ft 210 kts 130°
2026-05-04 16:59 49.95560 14.39532 4003 ft 195 kts 130°
2026-05-04 17:00 49.92242 14.46201 4003 ft 193 kts 130°
2026-05-04 17:00 49.92219 14.51937 4002 ft 213 kts 44°
2026-05-04 17:01 49.95072 14.53038 4012 ft 220 kts 353°
2026-05-04 17:01 49.97807 14.51090 4004 ft 218 kts 314°
2026-05-04 17:02 49.99651 14.47509 4020 ft 207 kts 304°
2026-05-04 17:02 50.01362 14.43996 3696 ft 202 kts 304°
2026-05-04 17:03 50.02205 14.42265 3461 ft 198 kts 304°
2026-05-04 17:03 50.03016 14.40600 3208 ft 186 kts 304°
2026-05-04 17:03 50.04437 14.37680 2762 ft 157 kts 303°
2026-05-04 17:04 50.05735 14.35000 2391 ft 155 kts 305°
2026-05-04 17:04 50.07027 14.32339 1943 ft 153 kts 306°
2026-05-04 17:05 50.08288 14.29717 1533 ft 149 kts 309°
2026-05-04 17:05 50.09513 14.27206 1206 ft 128 kts 308°
2026-05-04 17:06 50.10152 14.25886 1189 ft 36 kts 307°
2026-05-04 17:06 50.10289 14.25688 1187 ft 18 kts 334°
2026-05-04 17:07 50.10484 14.25741 1179 ft 15 kts 96°
2026-05-04 17:07 50.10497 14.25843 1177 ft 16 kts 78°
2026-05-04 17:07 50.10530 14.26099 1173 ft 15 kts 78°
2026-05-04 17:07 50.10534 14.26239 1174 ft 14 kts 105°
2026-05-04 17:08 50.10481 14.26373 1170 ft 16 kts 124°
2026-05-04 17:08 50.10382 14.26590 1171 ft 7 kts 124°
2026-05-04 17:08 50.10355 14.26650 1173 ft 6 kts 124°
2026-05-04 17:09 50.10337 14.26701 1172 ft 4 kts 99°
2026-05-04 17:09 50.10350 14.26726 1170 ft 2 kts 38°
2026-05-04 17:09 50.10361 14.26738 1172 ft 1 kts 34°
2026-05-04 17:10 50.10367 14.26744 1171 ft 0 kts 34°